TimeEDT,TemperatureF,Dew PointF,Humidity,Sea Level PressureIn,VisibilityMPH,Wind Direction,Wind SpeedMPH,Gust SpeedMPH,PrecipitationIn,Events,Conditions,WindDirDegrees,DateUTC
1:49 AM,73.4,71.6,94,30.18,10.0,Variable,4.6,-,N/A,,Mostly Cloudy,0,2013-08-21 05:49:00
1:53 AM,73.0,71.1,93,30.14,10.0,Variable,5.8,-,N/A,,Mostly Cloudy,0,2013-08-21 05:53:00
2:16 AM,71.6,68.0,88,30.19,10.0,SSE,5.8,-,N/A,,Scattered Clouds,150,2013-08-21 06:16:00
2:19 AM,71.6,68.0,88,30.19,10.0,SE,6.9,-,N/A,,Mostly Cloudy,140,2013-08-21 06:19:00
2:27 AM,71.6,68.0,88,30.18,10.0,SSE,5.8,-,N/A,,Mostly Cloudy,150,2013-08-21 06:27:00
2:34 AM,71.6,68.0,88,30.18,10.0,Variable,3.5,-,N/A,,Mostly Cloudy,0,2013-08-21 06:34:00
2:51 AM,69.8,68.0,94,30.17,10.0,SE,4.6,-,N/A,,Scattered Clouds,130,2013-08-21 06:51:00
2:53 AM,70.0,68.0,93,30.14,10.0,Calm,Calm,-,N/A,,Scattered Clouds,0,2013-08-21 06:53:00
3:53 AM,70.0,68.0,93,30.11,10.0,Calm,Calm,-,N/A,,Clear,0,2013-08-21 07:53:00
4:53 AM,69.1,66.9,93,30.12,10.0,Calm,Calm,-,N/A,,Clear,0,2013-08-21 08:53:00
5:53 AM,69.1,66.9,93,30.14,10.0,ENE,3.5,-,0.00,,Scattered Clouds,60,2013-08-21 09:53:00
6:53 AM,70.0,68.0,93,30.16,10.0,NNE,3.5,-,0.01,,Mostly Cloudy,20,2013-08-21 10:53:00
7:53 AM,70.0,69.1,97,30.18,4.0,Calm,Calm,-,0.02,Rain,Rain,0,2013-08-21 11:53:00
8:53 AM,71.1,69.1,93,30.20,9.0,SSE,3.5,-,0.01,Rain,Light Rain,160,2013-08-21 12:53:00
9:14 AM,69.8,69.8,100,30.24,2.5,East,3.5,-,0.04,Rain,Heavy Rain,80,2013-08-21 13:14:00
9:19 AM,69.8,69.8,100,30.24,4.0,Calm,Calm,-,0.04,Rain,Light Rain,0,2013-08-21 13:19:00
9:41 AM,69.8,69.8,100,30.24,4.0,Calm,Calm,-,0.08,,Overcast,0,2013-08-21 13:41:00
9:43 AM,69.8,69.8,100,30.24,2.0,East,4.6,-,0.15,Rain,Rain,90,2013-08-21 13:43:00
9:50 AM,69.8,69.8,100,30.25,1.0,ENE,4.6,-,0.37,Rain,Heavy Rain,70,2013-08-21 13:50:00
9:53 AM,70.0,69.1,97,30.21,1.0,Calm,Calm,-,0.38,Rain,Heavy Rain,0,2013-08-21 13:53:00
10:16 AM,69.8,69.8,100,30.26,2.0,Calm,Calm,-,0.08,Rain,Light Rain,0,2013-08-21 14:16:00
10:41 AM,69.8,68.0,94,30.26,2.0,SSE,8.1,-,0.27,Rain-Thunderstorm,Thunderstorms and Rain,150,2013-08-21 14:41:00
10:53 AM,69.1,68.0,96,30.22,2.0,ESE,8.1,-,0.77,Rain-Thunderstorm,Heavy Thunderstorms and Rain,120,2013-08-21 14:53:00
11:00 AM,68.0,66.2,94,30.26,1.0,Variable,6.9,-,0.11,Rain-Thunderstorm,Heavy Thunderstorms and Rain,0,2013-08-21 15:00:00
11:40 AM,69.8,66.2,88,30.26,5.0,Calm,Calm,-,0.50,Rain,Light Rain,0,2013-08-21 15:40:00
11:53 AM,69.1,68.0,96,30.22,10.0,Calm,Calm,-,0.50,,Mostly Cloudy,0,2013-08-21 15:53:00
12:53 PM,73.9,71.1,91,30.21,10.0,Variable,3.5,-,N/A,,Mostly Cloudy,0,2013-08-21 16:53:00
12:56 PM,73.4,71.6,94,30.24,10.0,ENE,3.5,-,N/A,,Mostly Cloudy,60,2013-08-21 16:56:00
1:39 PM,75.2,71.6,89,30.24,10.0,Calm,Calm,-,N/A,,Overcast,0,2013-08-21 17:39:00
1:53 PM,75.9,70.0,82,30.19,10.0,Calm,Calm,-,N/A,,Overcast,0,2013-08-21 17:53:00
2:53 PM,75.9,71.1,85,30.18,10.0,East,4.6,-,N/A,,Overcast,100,2013-08-21 18:53:00
3:45 PM,77.0,71.6,83,30.20,8.0,ENE,4.6,-,N/A,,Overcast,60,2013-08-21 19:45:00
3:53 PM,77.0,72.0,84,30.16,8.0,Calm,Calm,-,N/A,,Overcast,0,2013-08-21 19:53:00
4:53 PM,79.0,72.0,79,30.14,8.0,East,3.5,-,N/A,,Mostly Cloudy,90,2013-08-21 20:53:00
5:30 PM,78.8,71.6,78,30.17,8.0,Variable,4.6,-,N/A,,Clear,0,2013-08-21 21:30:00
5:53 PM,80.1,72.0,76,30.13,9.0,Calm,Calm,-,N/A,,Clear,0,2013-08-21 21:53:00
6:53 PM,79.0,72.0,79,30.10,9.0,Calm,Calm,-,N/A,,Clear,0,2013-08-21 22:53:00
7:53 PM,77.0,72.0,84,30.12,7.0,Calm,Calm,-,N/A,,Clear,0,2013-08-21 23:53:00
8:53 PM,73.9,73.0,97,30.13,7.0,Calm,Calm,-,N/A,,Clear,0,2013-08-22 00:53:00
9:53 PM,73.9,72.0,93,30.16,8.0,East,3.5,-,N/A,,Clear,100,2013-08-22 01:53:00
10:53 PM,73.0,72.0,96,30.15,7.0,Calm,Calm,-,N/A,,Clear,0,2013-08-22 02:53:00
11:53 PM,73.0,71.1,93,30.15,5.0,Calm,Calm,-,N/A,,Clear,0,2013-08-22 03:53:00